CZ-6A DEB, 56608

Orbit data source: Space-Track

CZ-6A DEB, 56608 is space debris in SSO originally from a launch on Fri, 11 Nov 2022 UTC launched from the Taiyaun Space Center, China (TSC). Debris objects in space refer to the collection of defunct objects orbiting the Earth. Examples of debris include non-operational satellites, rocket bodies, and fragments generated from explosions, collisions, or faulty payload assembly.

Loading next visibility...
Identifier
56608, 2022-151AEG
Orbit
SSO
Country
Flag of CNCN / PRC
Related business
Manufacturer
SAST
Mission
Spacecraft
Bus & Motor
Unknown
Mass
Unknown
Launch date (UTC)
2022-11-11 (3 years ago)
Launch vehicle
Unknown
Launch site
Taiyaun Space Center, China (TSC)
Object type
Payload
Rocket body
Debris
Shape & HBR
Unknown shape, 0.1 m
Radar Cross Section
Small (<0.1 m²)

Expand to show TLE details & history
Last TLE update: 13 hours ago

TLE from 13 hours ago
0 CZ-6A DEB
1 56608U 22151AEG 25349.79219681  .00001341  00000-0  70178-3 0  9997
2 56608  98.9069   8.5870 0034340 124.1353 236.3086 14.15744415136610
Epoch: 2025-12-15T19:00Z
TLE epoch observation values (Epoch: 2025-12-15T19:00:45.804Z)
Latitude
0.00003°
Longitude
-1.28953°
Altitude
856.494 km
Speed
7.417 km/s
True Right ascension
00h 34m 20s
True Declination
0° 00' 00"
Sunlit
Object was in daylight at epoch
Visualization orbit readout
Latitude
Unknown
Longitude
Unknown
Altitude
Unknown
Speed
Unknown
Apparent Right ascension
Unknown
Apparent Declination
Unknown
Sunlit
N/A
Visualization observer readout
Local Sidereal Time
06:14:44
Azimuth
Unknown
Elevation
Unknown
Doppler factor
Unknown
Orbital elements
Apogee altitude
861.731 km
Perigee altitude
812.178 km
Semi-major axis
7,215.092 km
Eccentricity
0.00343
Inclination
98.9069°
RAAN
8.587°
Arg. of periapsis
124.1353°
True anomaly
235.98197°
Mean anomaly
236.3086°
Eccentric anomaly
236.14521°
Mean motion
3.54144 °/min
Orbital period
101.65 mins
BSTAR
0.00070178
Loading maneuver chart data...
Computing Atmospheric mass density...
Loading historical data...
Loading historical data...
Loading historical data...
Loading historical data...
Loading historical data...
Loading historical data...
Loading historical data...

Documentation

Showing up to 5 results
|